EST,Max TemperatureF,Mean TemperatureF,Min TemperatureF,Max Dew PointF,MeanDew PointF,Min DewpointF,Max Humidity, Mean Humidity, Min Humidity, Max Sea Level PressureIn, Mean Sea Level PressureIn, Min Sea Level PressureIn, Max VisibilityMiles, Mean VisibilityMiles, Min VisibilityMiles, Max Wind SpeedMPH, Mean Wind SpeedMPH, Max Gust SpeedMPH,PrecipitationIn, CloudCover, Events, WindDirDegrees
2013-12-1,48,40,32,34,30,26,82,70,51,30.36,30.16,30.02,10,10,10,8,3,,0.00,6,,317
2013-12-2,45,40,34,37,32,28,89,80,65,30.01,29.95,29.91,10,8,6,5,1,,0.00,6,,110
2013-12-3,51,40,28,35,31,27,96,77,48,30.01,29.93,29.88,10,7,4,8,4,,0.00,0,,318
2013-12-4,50,41,32,40,33,28,89,74,54,30.15,30.10,30.02,10,7,5,6,3,,0.00,3,,117
2013-12-5,54,49,44,54,49,41,100,95,86,30.13,30.04,29.94,5,1,0,7,4,,0.04,8,Fog-Rain,130
2013-12-6,53,44,35,54,42,31,100,90,81,30.15,30.01,29.88,10,4,0,17,7,23,0.72,8,Fog-Rain,340
2013-12-7,39,34,28,31,25,15,89,69,50,30.51,30.31,30.09,10,10,3,17,10,21,0.07,4,Rain,324
2013-12-8,30,26,23,25,17,13,88,62,54,30.60,30.52,30.38,10,9,3,12,6,,0.00,6,Rain-Snow,18
2013-12-9,39,34,28,37,31,25,97,92,88,30.37,30.11,29.96,9,3,1,15,8,28,0.06,7,Rain-Snow,19
2013-12-10,35,30,26,31,26,16,92,83,66,30.11,29.95,29.84,10,6,0,16,6,21,0.17,4,Fog-Snow,275
2013-12-11,30,27,24,15,13,12,66,56,47,30.31,30.23,30.13,10,10,10,14,7,18,0.00,0,,257
2013-12-12,26,22,19,14,6,3,63,51,44,30.34,30.26,30.15,10,10,10,17,12,25,0.00,1,,295
2013-12-13,32,26,19,17,9,2,69,49,43,30.35,30.19,30.12,10,10,10,14,7,25,0.00,2,,263
2013-12-14,30,22,17,27,15,12,93,80,60,30.51,30.31,29.84,10,2,0,16,9,32,0.13,7,Fog-Rain-Snow,58
2013-12-15,36,32,28,33,26,19,100,79,61,29.82,29.65,29.52,10,8,2,23,14,33,0.39,6,Rain,303
2013-12-16,30,23,16,19,9,5,71,52,41,30.24,30.06,29.81,10,10,10,18,11,31,0.00,2,,282
2013-12-17,26,21,16,23,17,8,89,80,55,30.24,30.05,29.92,10,4,0,14,5,,0.14,7,Rain-Snow,32
2013-12-18,34,26,19,20,17,14,81,66,48,30.16,30.04,29.92,10,10,10,18,10,25,0.00,3,,294
2013-12-19,43,34,25,29,21,16,73,58,42,30.18,30.11,30.02,10,10,7,10,5,,0.00,1,,254
2013-12-20,48,40,33,38,29,27,82,62,48,30.11,30.03,29.98,10,10,8,7,2,,0.00,2,,213
2013-12-21,59,54,48,48,44,39,86,76,62,30.01,29.95,29.90,10,9,8,8,4,,0.00,3,,212
2013-12-22,68,59,50,58,54,48,100,84,68,29.95,29.88,29.81,10,8,2,14,5,25,0.00,6,Rain,186
2013-12-23,59,49,39,57,50,31,100,93,73,30.13,29.98,29.89,10,5,0,18,4,29,0.56,7,Fog-Rain,297
2013-12-24,37,31,24,31,22,7,86,68,48,30.32,30.17,30.09,10,9,1,25,12,34,0.01,4,Snow,323
2013-12-25,26,21,16,13,6,4,62,52,41,30.53,30.47,30.34,10,10,10,21,11,28,0.00,2,,324
2013-12-26,33,28,24,24,21,14,81,71,56,30.42,30.27,30.15,10,9,2,10,3,,0.00,4,Snow,277
2013-12-27,37,32,26,21,19,15,75,59,41,30.35,30.30,30.26,10,10,10,13,6,20,0.00,2,,265
2013-12-28,51,40,30,25,22,20,69,49,32,30.27,30.16,30.06,10,10,10,9,3,20,0.00,1,,257
2013-12-29,44,40,37,43,34,24,97,80,47,30.05,29.73,29.42,10,7,1,20,7,30,1.07,5,Rain,342
2013-12-30,39,29,18,34,22,8,89,68,49,30.19,29.98,29.70,10,10,10,17,9,31,0.00,4,,299
2013-12-31,28,22,17,21,10,5,75,58,41,30.27,30.15,30.07,10,10,1,17,5,26,0.00,3,Snow,291